Location: Unspecified
(0.0000°N, 0.0000°E)
Time: 06:48:24
(UTC+00:00)

Transit 2A - Visible Passes

Search period start: 23 May 2018 00:00
Search period end: 02 June 2018 00:00
Orbit: 599 x 960 km, 66.7° (Epoch: 22 May)

Date Brightness Start Highest point End Pass type
(mag) Time Alt. Az. Time Alt. Az. Time Alt. Az.
31 May 7.6 19:09:25 10° SSE 19:19:11 11° ENE 19:19:31 10° NE visible
31 May 8.2 20:52:29 10° SW 20:59:00 24° NW 21:02:26 10° NNW visible
01 Jun 7.7 18:36:40 10° SSE 18:40:29 17° ESE 18:44:11 10° ENE visible
01 Jun 7.4 20:17:44 10° SW 20:23:36 43° WNW 20:29:06 10° N visible
